| time (UTC) | temp F | wind direction | speed MPH | gust MPH | rain 1hr in | rain 24hr in | rain mn in | humidity % | barometer mb |
| 20260506072841 | 54 | 15 | 2.0 | 7.0 | 0.00 | 0.00 | 0.00 | 48 | 1013.4 |
| 20260506071919 | 53 | 36 | 4.0 | 9.0 | 0.00 | 0.00 | 0.00 | 46 | 1013.3 |
| 20260506070837 | 53 | 37 | 4.0 | 10.0 | 0.00 | 0.00 | 0.00 | 46 | 1013.3 |
| 20260506061828 | 51 | 48 | 3.0 | 7.0 | 0.00 | 0.00 | 0.00 | 65 | 1012.9 |
| 20260506060825 | 50 | 36 | 2.0 | 6.0 | 0.00 | 0.00 | 0.00 | 67 | 1012.8 |
| 20260506050813 | 45 | 346 | 2.0 | 6.0 | 0.00 | 0.00 | 0.00 | 80 | 1012.6 |
| 20260506044809 | 43 | 13 | 2.0 | 6.0 | 0.00 | 0.00 | 0.00 | 84 | 1012.7 |
| 20260506043827 | 42 | 329 | 2.0 | 5.0 | 0.00 | 0.00 | 0.00 | 84 | 1012.6 |
| 20260506042805 | 42 | 336 | 2.0 | 5.0 | 0.00 | 0.00 | 0.00 | 85 | 1012.5 |
| 20260506041803 | 41 | 345 | 1.0 | 4.0 | 0.00 | 0.00 | 0.00 | 86 | 1012.5 |
| 20260506040821 | 40 | 340 | 2.0 | 4.0 | 0.00 | 0.00 | 0.00 | 87 | 1012.3 |
| 20260506035759 | 40 | 323 | 2.0 | 4.0 | 0.00 | 0.00 | 0.00 | 87 | 1012.2 |
| 20260506034756 | 39 | 330 | 2.0 | 4.0 | 0.00 | 0.00 | 0.00 | 88 | 1012.1 |
| 20260506033756 | 39 | 311 | 2.0 | 4.0 | 0.00 | 0.00 | 0.00 | 89 | 1011.9 |
| 20260506032753 | 38 | 306 | 2.0 | 3.0 | 0.00 | 0.00 | 0.00 | 89 | 1011.8 |
| 20260506031751 | 38 | 303 | 2.0 | 4.0 | 0.00 | 0.00 | 0.00 | 89 | 1011.7 |
| 20260506030748 | 37 | 306 | 2.0 | 4.0 | 0.00 | 0.00 | 0.00 | 90 | 1011.6 |
| 20260506025806 | 37 | 309 | 2.0 | 4.0 | 0.00 | 0.00 | 0.00 | 90 | 1011.5 |
| 20260506024746 | 37 | 324 | 1.0 | 4.0 | 0.00 | 0.00 | 0.00 | 89 | 1011.4 |
| 20260506023742 | 37 | 332 | 1.0 | 3.0 | 0.00 | 0.00 | 0.00 | 90 | 1011.4 |
| 20260506022741 | 37 | 302 | 2.0 | 4.0 | 0.00 | 0.00 | 0.00 | 90 | 1011.2 |
| 20260506021739 | 38 | 310 | 2.0 | 4.0 | 0.00 | 0.00 | 0.00 | 90 | 1011.2 |
| 20260506020737 | 38 | 315 | 2.0 | 3.0 | 0.00 | 0.00 | 0.00 | 90 | 1011.1 |
| 20260506015755 | 38 | 303 | 2.0 | 4.0 | 0.00 | 0.00 | 0.00 | 90 | 1011.1 |
| 20260506014733 | 38 | 270 | 1.0 | 3.0 | 0.00 | 0.00 | 0.00 | 90 | 1010.9 |
| 20260506013731 | 38 | 284 | 2.0 | 4.0 | 0.00 | 0.00 | 0.00 | 91 | 1010.8 |
| 20260506012728 | 37 | 297 | 2.0 | 4.0 | 0.00 | 0.00 | 0.00 | 90 | 1010.8 |
| 20260506011727 | 37 | 300 | 2.0 | 4.0 | 0.00 | 0.00 | 0.00 | 90 | 1010.7 |
| 20260506010725 | 37 | 286 | 2.0 | 5.0 | 0.00 | 0.00 | 0.00 | 90 | 1010.7 |
| 20260506005723 | 36 | 308 | 2.0 | 4.0 | 0.00 | 0.00 | 0.00 | 89 | 1010.7 |
| 20260506004721 | 36 | 328 | 1.0 | 2.0 | 0.00 | 0.00 | 0.00 | 89 | 1010.6 |
| 20260506003718 | 36 | 315 | 1.0 | 2.0 | 0.00 | 0.00 | 0.00 | 89 | 1010.5 |
| 20260506002718 | 37 | 5 | 1.0 | 2.0 | 0.00 | 0.00 | 0.00 | 89 | 1010.5 |
| 20260506001735 | 37 | 5 | 1.0 | 3.0 | 0.00 | 0.00 | 0.00 | 89 | 1010.4 |
| 20260506000713 | 37 | 288 | 2.0 | 4.0 | 0.00 | 0.00 | 0.00 | 90 | 1010.3 |
| 20260505235752 | 36 | 270 | 2.0 | 4.0 | 0.00 | 0.00 | 0.00 | 90 | 1010.3 |
| 20260505234728 | 35 | 270 | 1.0 | 3.0 | 0.00 | 0.00 | 0.00 | 88 | 1010.1 |
| 20260505233706 | 34 | 270 | 1.0 | 2.0 | 0.00 | 0.00 | 0.00 | 87 | 1010.1 |
| 20260505232705 | 34 | 90 | 1.0 | 2.0 | 0.00 | 0.00 | 0.00 | 87 | 1010.2 |
| 20260505231702 | 35 | 90 | 1.0 | 2.0 | 0.00 | 0.00 | 0.00 | 86 | 1010.1 |
| 20260505230721 | 35 | 90 | 1.0 | 2.0 | 0.00 | 0.00 | 0.00 | 86 | 1010.1 |
| 20260505225659 | 36 | 67 | 1.0 | 2.0 | 0.00 | 0.00 | 0.00 | 86 | 1010.1 |
| 20260505224657 | 37 | 71 | 1.0 | 2.0 | 0.00 | 0.00 | 0.00 | 86 | 1010.2 |
| 20260505223655 | 37 | 40 | 1.0 | 2.0 | 0.00 | 0.00 | 0.00 | 87 | 1010.2 |
| 20260505222653 | 38 | 30 | 1.0 | 2.0 | 0.00 | 0.00 | 0.00 | 87 | 1010.2 |
| 20260505221651 | 38 | 315 | 1.0 | 3.0 | 0.00 | 0.00 | 0.00 | 87 | 1010.2 |
| 20260505220648 | 38 | 293 | 1.0 | 3.0 | 0.00 | 0.00 | 0.00 | 86 | 1010.1 |
| 20260505215647 | 38 | 315 | 1.0 | 3.0 | 0.00 | 0.00 | 0.00 | 86 | 1010.1 |
| 20260505214646 | 38 | 348 | 1.0 | 1.0 | 0.00 | 0.00 | 0.00 | 84 | 1010.0 |
| 20260505213642 | 38 | 90 | 1.0 | 2.0 | 0.00 | 0.00 | 0.00 | 84 | 1009.9 |
| 20260505212641 | 39 | 90 | 1.0 | 2.0 | 0.00 | 0.00 | 0.00 | 84 | 1009.8 |
| 20260505211659 | 40 | 90 | 1.0 | 2.0 | 0.00 | 0.00 | 0.00 | 84 | 1009.7 |
| 20260505210637 | 40 | 242 | 1.0 | 2.0 | 0.00 | 0.00 | 0.00 | 84 | 1009.7 |
| 20260505205635 | 40 | 240 | 2.0 | 3.0 | 0.00 | 0.00 | 0.00 | 84 | 1009.7 |
| 20260505204633 | 41 | 221 | 1.0 | 3.0 | 0.00 | 0.00 | 0.00 | 83 | 1009.6 |
| 20260505203631 | 41 | 270 | 1.0 | 2.0 | 0.00 | 0.00 | 0.00 | 83 | 1009.6 |
| 20260505202629 | 42 | 270 | 2.0 | 5.0 | 0.00 | 0.00 | 0.00 | 83 | 1009.5 |
| 20260505201629 | 42 | 240 | 3.0 | 5.0 | 0.00 | 0.00 | 0.00 | 82 | 1009.5 |
| 20260505200624 | 42 | 270 | 1.0 | 3.0 | 0.00 | 0.00 | 0.00 | 80 | 1009.4 |
| 20260505195624 | 42 | 270 | 1.0 | 3.0 | 0.00 | 0.00 | 0.00 | 79 | 1009.4 |
| 20260505194621 | 43 | 270 | 1.0 | 4.0 | 0.00 | 0.00 | 0.00 | 78 | 1009.3 |
| 20260505193620 | 43 | 270 | 1.0 | 3.0 | 0.00 | 0.00 | 0.00 | 76 | 1009.3 |
| 20260505192616 | 44 | 290 | 1.0 | 3.0 | 0.00 | 0.00 | 0.00 | 75 | 1009.3 |
| 20260505191615 | 44 | 338 | 1.0 | 4.0 | 0.00 | 0.00 | 0.00 | 74 | 1009.3 |
| 20260505190613 | 45 | 287 | 2.0 | 4.0 | 0.00 | 0.00 | 0.00 | 73 | 1009.1 |
| 20260505185631 | 46 | 295 | 1.0 | 3.0 | 0.00 | 0.00 | 0.00 | 71 | 1009.1 |
| 20260505184610 | 47 | 310 | 2.0 | 4.0 | 0.00 | 0.00 | 0.00 | 70 | 1009.1 |
| 20260505183607 | 48 | 315 | 1.0 | 4.0 | 0.00 | 0.00 | 0.00 | 68 | 1008.9 |
| 20260505182605 | 49 | 308 | 2.0 | 4.0 | 0.00 | 0.00 | 0.00 | 67 | 1008.8 |
| 20260505181603 | 50 | 307 | 2.0 | 5.0 | 0.00 | 0.00 | 0.00 | 66 | 1008.7 |
| 20260505180621 | 51 | 315 | 2.0 | 5.0 | 0.00 | 0.00 | 0.00 | 64 | 1008.6 |
| 20260505175600 | 51 | 315 | 2.0 | 6.0 | 0.00 | 0.00 | 0.00 | 63 | 1008.6 |
| 20260505174617 | 51 | 309 | 3.0 | 7.0 | 0.00 | 0.00 | 0.00 | 61 | 1008.6 |
| 20260505173556 | 51 | 302 | 3.0 | 7.0 | 0.00 | 0.00 | 0.00 | 60 | 1008.5 |
| 20260505172553 | 51 | 307 | 3.0 | 9.0 | 0.00 | 0.00 | 0.00 | 59 | 1008.4 |
| 20260505171551 | 52 | 315 | 6.0 | 12.0 | 0.00 | 0.00 | 0.00 | 57 | 1008.4 |
| 20260505170549 | 53 | 318 | 6.0 | 12.0 | 0.00 | 0.00 | 0.00 | 54 | 1008.4 |
| 20260505165608 | 53 | 302 | 4.0 | 8.0 | 0.00 | 0.00 | 0.00 | 55 | 1008.3 |
| 20260505164545 | 53 | 293 | 4.0 | 7.0 | 0.00 | 0.00 | 0.00 | 54 | 1008.1 |
| 20260505163543 | 53 | 291 | 5.0 | 11.0 | 0.00 | 0.00 | 0.00 | 51 | 1008.1 |
| 20260505162541 | 54 | 312 | 4.0 | 9.0 | 0.00 | 0.00 | 0.00 | 52 | 1008.1 |
| 20260505161538 | 53 | 303 | 4.0 | 11.0 | 0.00 | 0.00 | 0.00 | 52 | 1008.1 |
| 20260505160538 | 53 | 286 | 7.0 | 12.0 | 0.00 | 0.00 | 0.00 | 52 | 1008.1 |
| 20260505152529 | 53 | 300 | 6.0 | 12.0 | 0.00 | 0.00 | 0.00 | 59 | 1008.1 |
| 20260505151528 | 53 | 314 | 6.0 | 14.0 | 0.00 | 0.00 | 0.00 | 59 | 1008.0 |
| 20260505150546 | 53 | 308 | 6.0 | 12.0 | 0.00 | 0.00 | 0.00 | 60 | 1008.0 |
| 20260505140513 | 54 | 313 | 7.0 | 17.0 | 0.00 | 0.00 | 0.00 | 62 | 1007.7 |
| 20260505124958 | 55 | 299 | 6.0 | 15.0 | 0.00 | 0.00 | 0.00 | 59 | 1007.4 |
| 20260505123955 | 55 | 292 | 6.0 | 12.0 | 0.00 | 0.00 | 0.00 | 59 | 1007.4 |
| 20260505122954 | 56 | 290 | 7.0 | 12.0 | 0.00 | 0.00 | 0.00 | 58 | 1007.3 |
| 20260505121953 | 56 | 299 | 6.0 | 17.0 | 0.00 | 0.00 | 0.00 | 59 | 1007.3 |
| 20260505120950 | 56 | 294 | 7.0 | 14.0 | 0.00 | 0.00 | 0.00 | 58 | 1007.2 |
| 20260505120008 | 56 | 305 | 6.0 | 11.0 | 0.00 | 0.00 | 0.00 | 62 | 1007.0 |
| 20260505114946 | 56 | 277 | 7.0 | 12.0 | 0.00 | 0.00 | 0.00 | 62 | 1007.0 |
| 20260505113944 | 56 | 284 | 7.0 | 12.0 | 0.00 | 0.00 | 0.00 | 61 | 1006.9 |
| 20260505112942 | 56 | 304 | 6.0 | 12.0 | 0.00 | 0.00 | 0.00 | 64 | 1006.8 |
| 20260505111940 | 56 | 294 | 5.0 | 11.0 | 0.00 | 0.00 | 0.00 | 63 | 1006.7 |
| 20260505110938 | 56 | 311 | 6.0 | 11.0 | 0.00 | 0.00 | 0.00 | 67 | 1006.7 |
| 20260505101928 | 57 | 266 | 6.0 | 11.0 | 0.00 | 0.00 | 0.00 | 65 | 1006.2 |
| 20260505100927 | 56 | 285 | 7.0 | 12.0 | 0.00 | 0.00 | 0.00 | 64 | 1006.2 |
| 20260505095926 | 56 | 288 | 7.0 | 16.0 | 0.00 | 0.00 | 0.00 | 65 | 1006.2 |
| 20260505094922 | 56 | 300 | 5.0 | 11.0 | 0.00 | 0.00 | 0.00 | 65 | 1006.3 |
| 20260505093920 | 56 | 290 | 6.0 | 11.0 | 0.00 | 0.00 | 0.00 | 66 | 1006.2 |
| 20260505092918 | 56 | 296 | 6.0 | 11.0 | 0.00 | 0.00 | 0.00 | 67 | 1006.0 |
| 20260505091917 | 56 | 289 | 6.0 | 14.0 | 0.00 | 0.00 | 0.00 | 66 | 1006.0 |
| 20260505090913 | 56 | 293 | 6.0 | 14.0 | 0.00 | 0.00 | 0.00 | 66 | 1005.9 |
| 20260505085933 | 56 | 290 | 6.0 | 11.0 | 0.00 | 0.00 | 0.00 | 67 | 1005.8 |
| 20260505084910 | 57 | 295 | 4.0 | 11.0 | 0.00 | 0.01 | 0.00 | 67 | 1005.8 |
| 20260505083908 | 56 | 290 | 6.0 | 13.0 | 0.00 | 0.01 | 0.00 | 67 | 1005.8 |
| 20260505082906 | 57 | 292 | 5.0 | 12.0 | 0.00 | 0.01 | 0.00 | 66 | 1005.7 |
| 20260505081925 | 57 | 282 | 6.0 | 10.0 | 0.00 | 0.01 | 0.00 | 66 | 1005.6 |
| 20260505080922 | 57 | 287 | 5.0 | 12.0 | 0.00 | 0.02 | 0.00 | 66 | 1005.6 |
| 20260505075901 | 57 | 263 | 4.0 | 11.0 | 0.00 | 0.02 | 0.00 | 67 | 1005.6 |
| 20260505074858 | 56 | 257 | 5.0 | 11.0 | 0.00 | 0.02 | 0.00 | 67 | 1005.5 |
| 20260505073857 | 56 | 281 | 5.0 | 10.0 | 0.00 | 0.02 | 0.00 | 68 | 1005.5 |